N4RCT Weather Reports


Display with metric or nautical units.
time (UTC)temp
F
wind
direction
speed
MPH
gust
MPH
rain 1hr
in
rain 24hr
in
rain mn
in
humidity
%
barometer
mb
20260505214941 75 135 0.0 0.0 0.00 0.00 0.00 50 1011.9
20260505214439 75 117 0.0 0.0 0.00 0.00 0.00 49 1011.5
20260505213936 75 147 0.0 0.0 0.00 0.00 0.00 48 1011.9
20260505213433 75 118 0.0 0.0 0.00 0.00 0.00 47 1011.9
20260505212929 76 163 0.0 0.0 0.00 0.00 0.00 46 1012.0
20260505212427 76 178 1.0 1.0 0.00 0.00 0.00 47 1011.7
20260505211923 76 123 0.0 0.0 0.00 0.00 0.00 48 1011.7
20260505211420 77 41 0.0 0.0 0.00 0.00 0.00 44 1011.4
20260505210916 77 95 0.0 0.0 0.00 0.00 0.00 47 1011.6
20260505210423 77 155 1.0 1.0 0.00 0.00 0.00 44 1011.8
20260505205911 77 137 0.0 1.0 0.00 0.00 0.00 46 1011.8
20260505205409 78 194 1.0 1.0 0.00 0.00 0.00 43 1011.6
20260505204905 78 147 0.0 0.0 0.00 0.00 0.00 41 1011.9
20260505204403 78 141 0.0 0.0 0.00 0.00 0.00 43 1012.1
20260505203900 78 204 1.0 2.0 0.00 0.00 0.00 42 1012.0
20260505203357 78 226 1.0 1.0 0.00 0.00 0.00 41 1012.1
20260505202853 77 119 1.0 2.0 0.00 0.00 0.00 42 1012.3
20260505202349 78 202 1.0 2.0 0.00 0.00 0.00 43 1012.0
20260505201846 78 115 1.0 2.0 0.00 0.00 0.00 40 1012.3
20260505201343 78 141 2.0 3.0 0.00 0.00 0.00 42 1012.3
20260505200842 78 216 1.0 1.0 0.00 0.00 0.00 40 1012.5
20260505200338 78 140 1.0 1.0 0.00 0.00 0.00 42 1012.5
20260505195834 79 200 3.0 3.0 0.00 0.00 0.00 41 1012.6
20260505195331 79 169 0.0 1.0 0.00 0.00 0.00 42 1012.6
20260505194828 80 55 2.0 3.0 0.00 0.00 0.00 39 1012.6
20260505194325 78 248 0.0 0.0 0.00 0.00 0.00 44 1012.6
20260505193820 79 146 0.0 0.0 0.00 0.00 0.00 42 1012.7
20260505193319 79 223 3.0 3.0 0.00 0.00 0.00 40 1012.8
20260505192816 79 101 0.0 0.0 0.00 0.00 0.00 40 1012.8
20260505192315 79 284 3.0 5.0 0.00 0.00 0.00 39 1013.0
20260505191812 80 166 0.0 0.0 0.00 0.00 0.00 41 1012.9
20260505191310 79 144 1.0 1.0 0.00 0.00 0.00 41 1013.3
20260505190806 80 224 3.0 5.0 0.00 0.00 0.00 41 1013.3
20260505190302 78 203 0.0 0.0 0.00 0.00 0.00 40 1013.3
20260505185758 77 276 1.0 2.0 0.00 0.00 0.00 45 1013.3
20260505185254 78 72 1.0 2.0 0.00 0.00 0.00 42 1013.3
20260505184750 78 169 3.0 3.0 0.00 0.00 0.00 43 1013.5
20260505184248 78 193 2.0 2.0 0.00 0.00 0.00 42 1013.1
20260505183744 77 117 1.0 2.0 0.00 0.00 0.00 40 1013.3
20260505183242 78 132 1.0 1.0 0.00 0.00 0.00 42 1013.1
20260505182739 78 124 0.0 1.0 0.00 0.00 0.00 41 1013.2
20260505182235 79 187 1.0 1.0 0.00 0.00 0.00 42 1013.2
20260505181732 79 66 1.0 2.0 0.00 0.00 0.00 43 1013.3
20260505181230 79 158 1.0 2.0 0.00 0.00 0.00 45 1013.1
20260505180726 78 141 1.0 1.0 0.00 0.00 0.00 45 1013.3
20260505180222 77 112 0.0 1.0 0.00 0.00 0.00 45 1013.2
20260505175719 77 112 1.0 2.0 0.00 0.00 0.00 45 1013.5
20260505175215 79 101 0.0 0.0 0.00 0.00 0.00 42 1013.5
20260505174712 78 66 2.0 2.0 0.00 0.00 0.00 41 1013.3
20260505174209 78 202 1.0 1.0 0.00 0.00 0.00 42 1013.8
20260505173705 78 109 1.0 1.0 0.00 0.00 0.00 41 1014.3
20260505173202 78 133 0.0 1.0 0.00 0.00 0.00 40 1014.1
20260505172659 78 220 3.0 5.0 0.00 0.00 0.00 41 1014.0
20260505172156 79 236 3.0 6.0 0.00 0.00 0.00 42 1014.3
20260505171655 78 37 2.0 2.0 0.00 0.00 0.00 45 1014.2
20260505171153 77 143 0.0 0.0 0.00 0.00 0.00 48 1014.3
20260505170650 77 62 1.0 1.0 0.00 0.00 0.00 47 1014.2
20260505170146 77 232 2.0 3.0 0.00 0.00 0.00 47 1014.5
20260505165641 77 114 2.0 2.0 0.00 0.00 0.00 47 1014.4
20260505165137 77 221 2.0 2.0 0.00 0.00 0.00 45 1014.6
20260505164633 77 196 0.0 1.0 0.00 0.00 0.00 46 1014.3
20260505164131 76 184 3.0 3.0 0.00 0.00 0.00 46 1014.3
20260505163629 76 206 3.0 3.0 0.00 0.00 0.00 49 1014.4
20260505163126 75 66 0.0 0.0 0.00 0.00 0.00 51 1014.5
20260505162623 76 221 4.0 5.0 0.00 0.00 0.00 51 1014.5
20260505162121 76 106 0.0 1.0 0.00 0.00 0.00 52 1014.5
20260505161618 76 123 0.0 0.0 0.00 0.00 0.00 51 1014.3
20260505161115 76 183 0.0 1.0 0.00 0.00 0.00 54 1014.5
20260505160613 75 208 1.0 1.0 0.00 0.00 0.00 56 1014.2
20260505160110 75 121 1.0 1.0 0.00 0.00 0.00 58 1014.4
20260505153050 74 61 1.0 2.0 0.00 0.00 0.00 60 1014.9
20260505152546 74 136 0.0 0.0 0.00 0.00 0.00 59 1014.9
20260505152042 74 134 0.0 0.0 0.00 0.00 0.00 60 1015.0
20260505151537 73 178 0.0 1.0 0.00 0.00 0.00 60 1014.8
20260505151035 72 163 2.0 2.0 0.00 0.00 0.00 62 1014.9
20260505150531 73 89 0.0 0.0 0.00 0.00 0.00 63 1014.9
20260505140456 68 120 0.0 0.0 0.00 0.00 0.00 69 1014.9
20260505124909 57 126 0.0 0.0 0.00 0.00 0.00 86 1015.0
20260505124407 56 119 0.0 0.0 0.00 0.00 0.00 87 1014.7
20260505123903 56 119 0.0 0.0 0.00 0.00 0.00 86 1014.5
20260505123359 56 102 0.0 0.0 0.00 0.00 0.00 85 1014.5
20260505122855 55 103 0.0 0.0 0.00 0.00 0.00 90 1014.8
20260505122353 53 99 0.0 0.0 0.00 0.00 0.00 92 1014.4
20260505121849 51 102 0.0 0.0 0.00 0.00 0.00 94 1014.4
20260505121346 51 118 0.0 0.0 0.00 0.00 0.00 94 1014.3
20260505120842 50 119 0.0 0.0 0.00 0.00 0.00 94 1014.2
20260505120338 51 119 0.0 0.0 0.00 0.00 0.00 94 1014.1
20260505115837 50 119 0.0 0.0 0.00 0.00 0.00 95 1014.1
20260505115335 50 119 0.0 0.0 0.00 0.00 0.00 95 1014.1
20260505114832 49 118 0.0 0.0 0.00 0.00 0.00 96 1014.2
20260505114329 49 120 0.0 0.0 0.00 0.00 0.00 97 1014.2
20260505113825 48 118 0.0 0.0 0.00 0.00 0.00 97 1014.2
20260505113321 48 119 0.0 0.0 0.00 0.00 0.00 97 1014.1
20260505112817 48 118 0.0 0.0 0.00 0.00 0.00 97 1013.9
20260505112315 47 118 0.0 0.0 0.00 0.00 0.00 97 1013.7
20260505111810 47 119 0.0 0.0 0.00 0.00 0.00 97 1013.7
20260505111306 47 110 0.0 0.0 0.00 0.00 0.00 97 1013.5
20260505110802 47 106 0.0 0.0 0.00 0.00 0.00 97 1013.5
20260505110300 46 100 0.0 0.0 0.00 0.00 0.00 97 1013.5
20260505101734 46 135 0.0 0.0 0.00 0.00 0.00 97 1013.2
20260505101230 47 106 0.0 0.0 0.00 0.00 0.00 96 1013.1
20260505100727 47 118 0.0 0.0 0.00 0.00 0.00 96 1013.5
20260505100223 47 118 0.0 0.0 0.00 0.00 0.00 96 1013.3
20260505095718 47 109 0.0 0.0 0.00 0.00 0.00 96 1013.2
20260505095217 47 99 0.0 0.0 0.00 0.00 0.00 96 1013.0
20260505094712 47 118 0.0 0.0 0.00 0.00 0.00 96 1013.0
20260505094209 47 119 0.0 0.0 0.00 0.00 0.00 96 1013.2
20260505093705 47 118 0.0 0.0 0.00 0.00 0.00 96 1013.5
20260505093203 47 138 0.0 0.0 0.00 0.00 0.00 96 1013.6
20260505092659 47 99 0.0 0.0 0.00 0.00 0.00 96 1013.5
20260505092158 47 93 0.0 0.0 0.00 0.00 0.00 95 1013.5
20260505091654 48 100 0.0 0.0 0.00 0.00 0.00 96 1013.5
20260505091152 48 119 0.0 0.0 0.00 0.00 0.00 96 1013.1
20260505090650 48 114 0.0 0.0 0.00 0.00 0.00 96 1013.2
20260505090148 47 120 0.0 0.0 0.00 0.00 0.00 95 1013.2
20260505085645 48 148 0.0 0.0 0.00 0.00 0.00 95 1013.7
20260505085143 48 104 0.0 0.0 0.00 0.00 0.00 95 1013.3
20260505084640 48 93 0.0 0.0 0.00 0.00 0.00 95 1013.3
20260505084139 48 99 0.0 0.0 0.00 0.00 0.00 95 1013.5
20260505083636 48 84 0.0 0.0 0.00 0.00 0.00 94 1013.5
20260505083132 48 86 0.0 0.0 0.00 0.00 0.00 95 1013.5
20260505082628 48 118 0.0 0.0 0.00 0.00 0.00 94 1013.7
20260505082126 48 125 0.0 0.0 0.00 0.00 0.00 94 1013.6
20260505081621 48 143 0.0 0.0 0.00 0.00 0.00 94 1013.5
20260505081120 49 106 0.0 0.0 0.00 0.00 0.00 94 1013.5
20260505080615 49 88 0.0 0.0 0.00 0.00 0.00 94 1013.6
20260505080112 49 98 0.0 0.0 0.00 0.00 0.00 94 1013.3
20260505075608 48 106 0.0 0.0 0.00 0.00 0.00 94 1013.2
20260505075105 48 108 0.0 0.0 0.00 0.00 0.00 94 1013.3
20260505074602 49 114 0.0 0.0 0.00 0.00 0.00 94 1013.2
20260505074059 49 102 0.0 0.0 0.00 0.00 0.00 94 1013.2
20260505073556 49 112 0.0 0.0 0.00 0.00 0.00 94 1013.2
20260505073055 49 109 0.0 0.0 0.00 0.00 0.00 94 1013.2
20260505072550 49 94 0.0 0.0 0.00 0.00 0.00 94 1013.3
20260505072047 49 119 0.0 0.0 0.00 0.00 0.00 94 1013.1
20260505071542 49 104 0.0 0.0 0.00 0.00 0.00 93 1013.3
20260505071041 49 106 0.0 0.0 0.00 0.00 0.00 93 1013.6
20260505070538 49 139 0.0 0.0 0.00 0.00 0.00 93 1013.3
20260505070033 49 99 0.0 0.0 0.00 0.00 0.00 93 1013.7
20260505065529 49 98 0.0 0.0 0.00 0.00 0.00 93 1013.5
20260505065026 50 94 0.0 0.0 0.00 0.00 0.00 93 1013.5
20260505064523 50 118 0.0 0.0 0.00 0.00 0.00 93 1013.6
20260505064022 50 120 0.0 0.0 0.00 0.00 0.00 93 1013.7
20260505063519 50 105 0.0 0.0 0.00 0.00 0.00 93 1013.5
20260505063014 50 119 0.0 0.0 0.00 0.00 0.00 92 1013.5
20260505062511 50 107 0.0 0.0 0.00 0.00 0.00 92 1013.5
20260505062008 50 108 0.0 0.0 0.00 0.00 0.00 92 1013.6
20260505061506 50 118 0.0 0.0 0.00 0.00 0.00 91 1013.7
20260505061004 50 102 0.0 0.0 0.00 0.00 0.00 91 1013.5
20260505060501 50 107 0.0 0.0 0.00 0.00 0.00 92 1013.7
20260505055957 50 105 0.0 0.0 0.00 0.00 0.00 91 1013.8
20260505055453 51 115 0.0 0.0 0.00 0.00 0.00 91 1013.8
20260505054950 51 101 0.0 0.0 0.00 0.00 0.00 91 1013.6
20260505054447 51 98 0.0 0.0 0.00 0.00 0.00 91 1013.8
20260505053945 51 111 0.0 0.0 0.00 0.00 0.00 91 1013.7
20260505053442 51 112 0.0 0.0 0.00 0.00 0.00 91 1013.8
20260505052938 51 106 0.0 0.0 0.00 0.00 0.00 91 1013.9
20260505052436 51 107 0.0 0.0 0.00 0.00 0.00 90 1013.9
20260505051933 51 109 0.0 0.0 0.00 0.00 0.00 90 1013.7
20260505051430 51 110 0.0 0.0 0.00 0.00 0.00 90 1013.6
20260505050928 51 104 0.0 0.0 0.00 0.00 0.00 90 1014.0
20260505050426 51 101 0.0 0.0 0.00 0.00 0.00 90 1014.0
20260505041353 53 100 0.0 0.0 0.00 0.00 0.00 87 1013.6
20260505040850 54 96 0.0 0.0 0.00 0.00 0.00 87 1013.7
20260505040348 54 117 0.0 0.0 0.00 0.00 0.00 87 1013.7
20260505035845 54 117 0.0 0.0 0.00 0.00 0.00 87 1013.7
20260505035340 54 117 0.0 0.0 0.00 0.00 0.00 86 1013.8
20260505034838 54 105 0.0 0.0 0.00 0.00 0.00 84 1013.9
20260505034334 54 105 0.0 0.0 0.00 0.00 0.00 84 1013.7
20260505033832 55 105 0.0 0.0 0.00 0.00 0.00 85 1013.9
20260505033328 55 105 0.0 0.0 0.00 0.00 0.00 84 1013.8
20260505032827 55 105 0.0 0.0 0.00 0.00 0.00 84 1013.9
20260505032323 55 100 0.0 0.0 0.00 0.00 0.00 84 1013.8
20260505031820 55 105 0.0 0.0 0.00 0.00 0.00 84 1013.9
20260505031316 56 105 0.0 0.0 0.00 0.00 0.00 84 1014.0
20260505030814 56 102 0.0 0.0 0.00 0.00 0.00 84 1013.9
20260505030310 56 101 0.0 0.0 0.00 0.00 0.00 83 1013.8
20260505025805 57 108 0.0 0.0 0.00 0.00 0.00 81 1013.9
20260505025304 57 108 0.0 0.0 0.00 0.00 0.00 81 1013.9
20260505024801 57 112 0.0 0.0 0.00 0.00 0.00 82 1013.7
20260505024258 57 105 0.0 0.0 0.00 0.00 0.00 81 1013.8
20260505023756 57 105 0.0 0.0 0.00 0.00 0.00 81 1013.7
20260505023252 57 98 0.0 0.0 0.00 0.00 0.00 80 1013.6
20260505022750 58 102 0.0 0.0 0.00 0.00 0.00 81 1013.6
20260505022247 58 106 0.0 0.0 0.00 0.00 0.00 80 1013.6
20260505021743 58 110 0.0 0.0 0.00 0.00 0.00 79 1013.6
20260505021241 58 117 0.0 0.0 0.00 0.00 0.00 79 1013.6
20260505020736 59 117 0.0 0.0 0.00 0.00 0.00 78 1013.5
20260505020232 59 108 0.0 0.0 0.00 0.00 0.00 78 1013.0
20260505015729 59 108 0.0 0.0 0.00 0.00 0.00 78 1013.1
20260505015226 60 114 0.0 0.0 0.00 0.00 0.00 78 1013.2
20260505014723 60 114 0.0 0.0 0.00 0.00 0.00 78 1013.1
20260505014220 60 118 0.0 0.0 0.00 0.00 0.00 78 1013.0
20260505013717 61 114 0.0 0.0 0.00 0.00 0.00 78 1013.1
20260505013214 61 114 0.0 0.0 0.00 0.00 0.00 77 1012.7
20260505012712 61 108 0.0 0.0 0.00 0.00 0.00 76 1012.9
20260505012209 62 126 0.0 0.0 0.00 0.00 0.00 74 1013.1
20260505011705 62 117 0.0 0.0 0.00 0.00 0.00 73 1013.1
20260505011202 62 117 0.0 0.0 0.00 0.00 0.00 71 1012.8
20260505010657 63 117 0.0 0.0 0.00 0.00 0.00 69 1012.8
20260505010154 64 117 0.0 0.0 0.00 0.00 0.00 69 1012.6
20260505005650 64 117 0.0 0.0 0.00 0.00 0.00 70 1012.7
20260505005148 65 117 0.0 0.0 0.00 0.00 0.00 67 1012.6
20260505004644 65 119 0.0 0.0 0.00 0.00 0.00 67 1012.6
20260505004141 66 119 0.0 0.0 0.00 0.00 0.00 66 1012.7
20260505003638 67 117 0.0 0.0 0.00 0.00 0.00 64 1012.6
20260505003136 68 121 0.0 0.0 0.00 0.00 0.00 64 1012.6
20260505002632 68 119 0.0 0.0 0.00 0.00 0.00 61 1012.6
20260505002130 69 119 0.0 0.0 0.00 0.00 0.00 58 1012.6
20260505001627 70 114 0.0 0.0 0.00 0.00 0.00 54 1012.5
20260505001125 70 120 0.0 0.0 0.00 0.00 0.00 55 1012.7
20260505000621 71 128 0.0 0.0 0.00 0.00 0.00 53 1012.4
20260505000120 71 101 0.0 0.0 0.00 0.00 0.00 52 1012.5
20260504235615 71 119 0.0 0.0 0.00 0.00 0.00 52 1012.5
20260504235112 72 140 0.0 0.0 0.00 0.00 0.00 51 1012.7
20260504234609 72 121 0.0 0.0 0.00 0.00 0.00 50 1012.6
20260504234106 72 120 0.0 0.0 0.00 0.00 0.00 51 1012.2
20260504233602 73 143 0.0 0.0 0.00 0.00 0.00 49 1012.5
20260504233058 73 117 0.0 1.0 0.00 0.00 0.00 48 1012.4
20260504232556 73 128 0.0 0.0 0.00 0.00 0.00 48 1012.4
20260504232053 74 122 0.0 0.0 0.00 0.00 0.00 48 1012.5
20260504231549 74 120 0.0 0.0 0.00 0.00 0.00 47 1012.7
20260504231046 74 121 0.0 0.0 0.00 0.00 0.00 46 1012.5
20260504230542 75 140 0.0 0.0 0.00 0.00 0.00 47 1012.4
20260504230041 75 217 2.0 3.0 0.00 0.00 0.00 44 1012.4
20260504225538 75 169 0.0 0.0 0.00 0.00 0.00 45 1012.4
20260504225035 75 146 0.0 1.0 0.00 0.00 0.00 45 1012.4
20260504224531 75 160 0.0 1.0 0.00 0.00 0.00 44 1012.4
20260504224029 76 179 0.0 0.0 0.00 0.00 0.00 44 1012.5
20260504223525 76 153 0.0 0.0 0.00 0.00 0.00 43 1012.7
20260504223021 76 145 0.0 0.0 0.00 0.00 0.00 43 1012.5
20260504222518 76 155 1.0 1.0 0.00 0.00 0.00 44 1012.6
20260504222016 76 180 0.0 1.0 0.00 0.00 0.00 43 1012.7
20260504221513 76 58 2.0 3.0 0.00 0.00 0.00 48 1012.6
20260504221009 76 182 1.0 1.0 0.00 0.00 0.00 45 1012.6
20260504220506 76 102 0.0 0.0 0.00 0.00 0.00 45 1012.4
20260504220003 76 108 0.0 0.0 0.00 0.00 0.00 47 1012.8
20260504215459 76 191 1.0 1.0 0.00 0.00 0.00 47 1012.5